FALCON 9 R/B, 44869

Orbit data source: Space-Track

FALCON 9 R/B, 44869 is space debris in HEO originally from a launch on Tue, 17 Dec 2019 UTC launched from the Air Force Eastern Test Range (AFETR). Debris objects in space refer to the collection of defunct objects orbiting the Earth. Examples of debris include non-operational satellites, rocket bodies, and fragments generated from explosions, collisions, or faulty payload assembly.

Loading next visibility...
Identifier
44869, 2019-091B
Orbit
HEO
Last TLE update
1 day ago
Origin
Manufacturer
SpaceX
Mission
Spacecraft
Bus & Motor
F9ST2, Unknown motor
Mass
~4,000 kg wet, ~4,000 kg dry
Launch date (UTC)
2019-12-17 (5 years ago)
Launch vehicle
Unknown
Launch site
Air Force Eastern Test Range (AFETR)
Object type
Payload
Rocket body
Debris
Shape & HBR
Cyl, 15.53 m
Radar Cross Section
39.980 m², Large (>1 m²)

Expand to show TLE details & history

TLE from 1 day ago
0 FALCON 9 R/B
1 44869U 19091B   25129.06779895  .00007292  00000-0  16005-2 0  9995
2 44869  26.9245 177.1331 5836106 231.0797  60.7345  4.28177534 81704
Epoch: 2025-05-09T01:37Z
Definitive object data (Epoch: 2025-05-09T01:37:37.829Z)
Latitude
-0.00002°
Longitude
-74.37055°
Altitude
10,306.641 km
Speed
4.785 km/s
True Right ascension
11h 48m 39s
True Declination
0° 00' 00"
Sunlit
Object was in daylight at TLE epoch
Visualization TLE readout
Latitude
18.68071°
Longitude
-33.53249°
Altitude
18,694.897 km
Speed
2.63 km/s
Apparent Right ascension
15h 19m 19s
Apparent Declination
9° 51' 42"
Sunlit
Object is in daylight
Visualization observer readout
Local Sidereal Time
09:44:53
Azimuth
86.435° E
Elevation
11.186°
Doppler factor
1
Orbital elements
Apogee altitude
18,996.372 km
Perigee altitude
293.753 km
Semi-major axis
16,023.2 km
Eccentricity
0.5836106
Inclination
26.9245°
RAAN
177.1331°
Arg. of periapsis
231.0797°
True anomaly
128.95715°
Mean anomaly
60.7345°
Eccentric anomaly
94.08785°
Mean motion
1.07009 °/min
BSTAR
0.0016005
Orbital period
336.42 mins
Loading maneuver chart data...
Loading SW <> Apogee altitude chart data...
Loading historical data...
Loading historical data...
Loading historical data...
Loading historical data...
Loading historical data...
Loading historical data...
Loading historical data...
Other satellites on launch #91 in the year 2019 (2019-12-17 UTC)

FALCON 9 R/B Visibility forecast

Observer location: undefined°, undefined°

Span
Click to sort rows by Start time (UTC) header in descending order
Start Az.
Max El. time (UTC)
Max El. Az.
Max El.
End time (UTC)
End Az.
43 mins2025-05-10 01:32:54.572Z86.462° E2025-05-10 01:39:54.572Z85.289° E11.004°2025-05-10 02:15:54.572Z79.713° E
260 mins2025-05-10 05:29:54.572Z225.754° WSW2025-05-10 08:41:54.572Z175.513° S43.428°2025-05-10 09:49:54.572Z105.916° ESE
46 mins2025-05-10 14:50:54.572Z280.341° WNW2025-05-10 15:24:54.572Z251.465° W16.488°2025-05-10 15:36:54.572Z214.982° SW
|